Weather Roundup
Issued by NWS

Home | Current Version | Previous Version | Text Only | Print | Product List | Glossary On
Versions: 1 2 3 4 5 6 7 8 9 10 11 12 13 14 15 16 17 18 19 20 21 22 23 24 25 26 27 28 29 30 31 32 33 34 35 36 37 38 39 40 41 42 43 44 45 46 47 48 49 50
000
NZUS93 KARX 031310
HRRWXR

CURRENT HOURLY OBSERVATIONS ACROSS
MUCH OF THE UPPER MISSISSIPPI VALLEY
NATIONAL WEATHER SERVICE LA CROSSE WI
700 AM CST TUE MAR 03 2015


...SOUTHEAST MINNESOTA...


CITY           SKY/WX    TMP DP  RH WIND       PRES   REMARKS
ROCHESTER      FRZ RAIN  22  20  92 SE12      29.69F FOG     WCI  10
ROCHESTER/MAYO CLOUDY    22  21  94 SE8       29.70F WCI  13
WINONA         CLOUDY    25  23  93 SE7       29.76F FOG     WCI  17
AUSTIN         MIX PCPN  23  21  93 S7        29.68F WCI  15
ALBERT LEA     CLOUDY    23  23 100 SE8       29.66F FOG     WCI  14
DODGE CENTER   MIX PCPN  23  23 100 S12       29.67F WCI  12
PRESTON        FOG       22  20  95 SE7       29.71F VSB 1   WCI  13
OWATONNA       CLOUDY    25  21  86 SE13      29.67F WCI  13
FARIBAULT      CLOUDY    25  21  86 SE8       29.70F FOG     WCI  16
$$

...ELSEWHERE IN MINNESOTA...


CITY           SKY/WX    TMP DP  RH WIND       PRES   REMARKS
MINNEAPOLIS    CLOUDY    22  14  71 SE8       29.71F WCI  12
INTNL FALLS    LGT SNOW  24  17  74 SW12      29.57F WCI  13
DULUTH         LGT SNOW  19  15  84 S14       29.65F VSB 3/4 WCI   6
RED WING       LGT SNOW  25  16  68 SE7       29.71F WCI  17
REDWOOD FALLS  SNOW      22  20  92 S9        29.71R VSB 1/2 WCI  12
MANKATO        CLOUDY    25  19  80 S10       29.69S WCI  15
FAIRMONT       CLOUDY    25  19  80 S7        29.67S WCI  17
$$

...SOUTHWEST WISCONSIN...


CITY           SKY/WX    TMP DP  RH WIND       PRES   REMARKS
LA CROSSE      CLOUDY    25  19  78 SE9       29.76F WCI  15
PRAIRIE DU CHI MIX PCPN  24  21  87 E5        29.77S WCI  18
BOSCOBEL       LGT SNOW  24  20  84 VRB3      29.78F FOG
LONE ROCK      LGT SNOW  24  20  84 SE8       29.78F FOG     WCI  15
PLATTEVILLE    CLOUDY    24  22  93 E13       29.75F WCI  12
FORT MC COY    CLOUDY    23  19  83 E3        29.77F
CAMP DOUGLAS   LGT SNOW  21  21 100 SE9       29.77F FOG     WCI  11
VIROQUA        CLOUDY    22  21  98 SE8       29.72F WCI  12
WIS DELLS      LGT SNOW  22  19  89 SE10      29.77F VSB 3/4 WCI  11
$$

...ELSEWHERE IN WISCONSIN...


CITY           SKY/WX    TMP DP  RH WIND       PRES   REMARKS
MILWAUKEE      LGT SNOW  26  22  84 S15       29.87F VSB 3/4 WCI  14
MADISON        LGT SNOW  24  20  84 SE15      29.80F FOG     WCI  11
GREEN BAY      LGT SNOW  26  20  77 S13       29.85F WCI  15
EAU CLAIRE     CLOUDY    22  14  71 SE5       29.74F WCI  16
BLACK RVR FLS  CLOUDY    24  17  73 CALM      29.76F
MEDFORD        CLOUDY    19  14  81 SE6       29.74F WCI  11
WAUSAU         CLOUDY    20  14  77 SE9       29.77F WCI   9
WIS RAPIDS     CLOUDY    22  13  68 SE12      29.79F WCI  10
MARSHFIELD     CLOUDY    22  14  71 SE9       29.76F WCI  12
RICE LAKE      CLOUDY    21  15  79 SE10      29.74F WCI  10
$$

...NORTHEAST IOWA...


CITY           SKY/WX    TMP DP  RH WIND       PRES   REMARKS
DECORAH        CLOUDY    23  21  93 SE7       29.72S FOG     WCI  15
MASON CITY     CLOUDY    24  21  88 SE10      29.68F FOG     WCI  14
CHARLES CITY   CLOUDY    25  25 100 SE10      29.70F FOG     WCI  15
OELWEIN        CLOUDY    25  25 100 SE9       29.71F FOG     WCI  15
$$

...ELSEWHERE IN IOWA...


CITY           SKY/WX    TMP DP  RH WIND       PRES   REMARKS
DES MOINES     FRZ DRZL  31  29  92 S8        29.69F FOG     WCI  23
IOWA CITY      CLOUDY    30  28  92 S13       29.77F WCI  20
FORT DODGE     CLOUDY    27  25  93 S7        29.68F WCI  19
$$

...NORTHERN ILLINOIS...


CITY           SKY/WX    TMP DP  RH WIND       PRES   REMARKS
CHICAGO-OHARE  FRZ DRZL  25  23  92 SE14      29.89F FOG     WCI  13
CHICAGO-MIDWAY FRZ DRZL  28  24  85 SE14      29.91F FOG     WCI  17
MOLINE         FRZ RAIN  29  26  89 S15G25    29.77F FOG     WCI  18
ROCKFORD       FRZ RAIN  29  25  85 S20       29.84F FOG     WCI  16
PEORIA         FRZ RAIN  30  27  88 S16       29.89S FOG     WCI  19
$$

NOTE: "FAIR" INDICATES FEW OR NO CLOUDS BELOW 12,000 FEET WITH NO
SIGNIFICANT WEATHER AND/OR OBSTRUCTIONS TO VISIBILITY. WIND
SPEEDS ARE IN MILES-PER-HOUR.



USA.gov is the U.S. government's official web portal to all federal, state and local government web resources and services.